Starlink 30811

operational
NORAD ID: 58167 Int'l Des: 2023-166 Owner: SPXS Country: US Constellation: starlink
LEOCIRCULAR

关于 Starlink 30811

正在加载描述...

实时位置

正在加载3D地球...

即将过境

高度历史

Altitude vs Time

uPlot chart will show altitude changes over time

两行轨道根数

1 58167U 23166T 25306.13878422 .00002084 00000-0 82488-4 0 9994
2 58167 53.1592 91.8669 0001045 84.6222 275.4898 15.30183567113509
Epoch: Nov 2, 2025 • Age: 23 hours

当前状态

高度 475.4 km
速度 7.63 km/s
星下点 19.02°N, 179.32°W
发射日期 Oct 29, 2023
运行时间 2 years
类型 internet

技术详情

分类 Payload
质量 730.00 kg
干质量 700.00 kg
总质量 730.00 kg
长度 0.30 m
直径 4.10 m
跨度 29.00 m
形状 Box + pan
制造商 SPXS
平台类型 Starlink V2M
阶段状态 In Orbit
所有者/国家 SPXS/US

大型星座

Loading constellations...